Home > Weather > Salta > Past weeks

Flag for Argentina Past Weather in Salta, Salta, Argentina — Yesterday and Last 2 Weeks

Now
43 °F

Fog.


Feels Like: 41 °F
Forecast: 42 / 62 °F
Wind: 3 mph from Northwest

Location: Salta Aerodrome

Current Time: Jun 1, 2016 at 4:38:13 AM

Latest Report: Jun 1, 2016 at 4:00 AM


Visibility: 0 mi

Pressure: 29.95 "Hg (25.91 "Hg at 1184m altitude)

Humidity: 100%

Dew Point: 43 °F

Location of SaltaLocation

Past Weather in Salta — Graph

°F

Salta Temperature Yesterday

Maximum temperature yesterday: 55 °F (at 2:00 PM)
Minimum temperature yesterday: 39 °F (at 3:00 AM)
Average temperature yesterday: 48 °F

High & Low Weather Summary for the Past Weeks

 TemperatureHumidityPressure
High68 °F (May 17, 7:00 AM)100% (May 23, 4:00 AM)30.36 "Hg (May 23, 4:00 AM)
Low37 °F (May 24, 8:00 AM)42% (May 22, 4:00 PM)29.95 "Hg (May 29, 5:00 PM)
Average50 °F82%30.15 "Hg
* Reported May 17 3:00 AM — Jun 1 3:00 AM, Salta, Weather by CustomWeather, © 2016

Note: Actual official high and low records may vary slightly from our data, if they occured in-between our weather recording intervals... More about our weather records

Advertising

Salta Weather History for the Previous 24 Hours

Scroll right to see more
 ConditionsComfort  
Time TempWeatherWind HumidityBarometerVisibility
3:00 AM
Wed, Jun 1
43 °FFog.3 mph93%29.95 "Hg2 mi
2:00 AM43 °FPassing clouds.5 mph100%29.95 "HgN/A
1:00 AM45 °FClear.3 mph93%29.98 "Hg10 mi
12:00 AM46 °FClear.2 mph87%29.98 "Hg10 mi
11:00 PM
Tue, May 31
48 °FClear.5 mph87%29.98 "Hg10 mi
10:00 PM50 °FClear.3 mph82%29.98 "Hg10 mi
9:00 PM50 °FOvercast.6 mph82%29.98 "HgN/A
8:00 PM50 °FOvercast.2 mph82%29.98 "HgN/A
7:00 PM52 °FOvercast.3 mph77%29.95 "HgN/A
6:00 PM52 °FOvercast.6 mph72%29.95 "HgN/A
5:00 PM54 °FMostly cloudy.3 mph67%29.95 "HgN/A
4:00 PM54 °FMostly cloudy.8 mph67%29.95 "HgN/A
3:00 PM55 °FMore clouds than sun.2 mph59%29.95 "HgN/A
2:00 PM55 °FMore clouds than sun.5 mph63%30.01 "HgN/A
1:00 PM54 °FBroken clouds.3 mph67%30.04 "HgN/A
12:00 PM54 °FOvercast.3 mph63%30.07 "HgN/A
11:00 AM50 °FPartly sunny.2 mph82%30.07 "HgN/A
10:00 AM48 °FOvercast.No wind87%30.07 "HgN/A
9:00 AM45 °FOvercast.No wind93%30.07 "HgN/A
8:00 AM43 °FOvercast.No wind93%30.04 "HgN/A
7:00 AM41 °FOvercast.No wind93%30.04 "HgN/A
6:00 AM41 °FClear.5 mph93%30.01 "Hg10 mi
5:00 AM39 °FClear.3 mph93%30.01 "Hg10 mi
4:00 AM41 °FClear.5 mph93%30.04 "Hg10 mi
Weather by CustomWeather, © 2016

See weather overviewHow to use our weather pages